Portada
METAR-TAF:

METAR-TAF

Aeroports :

Emerald, Austràlia

latitud: 23-34-03S, longitud: 148-10-45E, altitud: 190 m

Observació

L'informe es va fer fa 29 minuts, a les 21:00 UTC
Vent 4 kt del Est/Sud-Est
Temperatura 25°C
Humitat 83%
Pressió 1007 hPa
Visibilitat 10 km o més

METAR: YEML 192100Z AUTO 11004KT 9999 // NCD 25/22 Q1007

Hora: 07:29 (21:29 UTC)


TAF: manca

Observacions i pronòstics meteorològics de més de 4000 aeroports (METAR i TAF).

Les estacions disponibles són els punts grocs i vermells al mapa.

Posi el ratolí al punt desitjat per veure el nom de l'estació.

Feu clic per veure les observacions i els pronòstics meteorològics.

Per canviar el mapa: feu clic els botons verds amb una creu de color negre per apropar; al botó verd amb un guió per allunyar la imatge; o en les fletxes verdes per a mapes adjacents.


METAR-TAF: